This demonstration page uses our WeatherBlox Daily Observations layout. Learn more.

Left ArrowRight Arrow

36.17497, -115.13722

Hourly Observations for March 31, 2021

Temp ( °F °C ) Dew Point ( °F °C ) Humidity (%) Winds ( mph kmh ) Pressure ( in mb ) Visibility ( mi km ) Precip ( " mm )
12:53 am 00:53 Clear 54 12.2 7 -13.9 15 15 WNW 7 11 30.24 1024 10 16 N/A
1:53 am 01:53 Clear 54 12.2 8 -13.3 16 16 WSW 6 9 30.25 1024 10 16 N/A
2:53 am 02:53 Clear 52 11.1 8 -13.3 17 17 S 5 7 30.27 1025 10 16 N/A
3:53 am 03:53 Clear 55 12.8 3 -16.1 12 12 NW 9 15 30.26 1025 10 16 N/A
4:53 am 04:53 Clear 55 12.8 3 -16.1 12 12 NNW 9 15 30.27 1025 10 16 N/A
5:53 am 05:53 Clear 54 12.2 4 -15.6 13 13 NNW 9 15 30.29 1026 10 16 N/A
6:53 am 06:53 Sunny 53 11.7 5 -15 14 14 N 9 15 30.32 1027 10 16 N/A
7:53 am 07:53 Sunny 56 13.3 7 -13.9 14 14 NNW 10 17 30.34 1028 10 16 N/A
8:53 am 08:53 Sunny 59 15 8 -13.3 13 13 NW 12 19 30.35 1028 10 16 N/A
9:53 am 09:53 Sunny 62 16.7 6 -14.4 11 11 NNE 8 13 30.35 1028 10 16 N/A
10:53 am 10:53 Sunny 64 17.8 5 -15 9 9 VRB 3 6 30.34 1028 10 16 N/A
11:53 am 11:53 Sunny 66 18.9 3 -16.1 8 8 N N/A 30.32 1027 10 16 N/A
12:53 pm 12:53 Sunny 70 21.1 -2 -18.9 5 5 E 13 20 30.29 1026 10 16 N/A
1:53 pm 13:53 Sunny 71 21.7 -2 -18.9 5 5 E 8 13 30.26 1025 10 16 N/A
2:53 pm 14:53 Sunny 72 22.2 -1 -18.3 5 5 VRB 7 11 30.23 1024 10 16 N/A
3:53 pm 15:53 Sunny 73 22.8 -2 -18.9 5 5 ENE 7 11 30.21 1023 10 16 N/A
4:53 pm 16:53 Sunny 73 22.8 -1 -18.3 5 5 E 9 15 30.19 1022 10 16 N/A
5:53 pm 17:53 Sunny 73 22.8 -4 -20 4 4 ENE 12 19 30.17 1022 10 16 N/A
6:53 pm 18:53 Sunny 71 21.7 -4 -20 5 5 N N/A 30.17 1022 10 16 N/A
7:53 pm 19:53 Clear 68 20 -1 -18.3 6 6 WNW 6 9 30.17 1022 10 16 N/A
8:53 pm 20:53 Clear 65 18.3 5 -15 9 9 W 3 6 30.18 1022 10 16 N/A
9:53 pm 21:53 Clear 61 16.1 9 -12.8 13 13 NNW 5 7 30.19 1022 10 16 N/A
10:53 pm 22:53 Clear 59 15 9 -12.8 13 13 WNW 5 7 30.18 1022 10 16 N/A
11:53 pm 23:53 Clear 56 13.3 9 -12.8 15 15 NNW 6 9 30.18 1022 10 16 N/A

Powered by AerisWeather